Stations météo

réclame
Mon MeteoGroup
Vlieland, Pays-Bas (6242): Température de l'air & dewpoint: 16.10.2018 16:00:00 - 22.10.2018 16:00:00 (CEST)Vlieland, Pays-Bas (6242): Température de l'air 5cm: 16.10.2018 16:00:00 - 22.10.2018 16:00:00 (CEST)Vlieland, Pays-Bas (6242): Vitesse du vent & gusts: 16.10.2018 16:00:00 - 22.10.2018 16:00:00 (CEST)Vlieland, Pays-Bas (6242): Direction du vent: 16.10.2018 16:00:00 - 22.10.2018 16:00:00 (CEST)Vlieland, Pays-Bas (6242): reduced air pressure: 16.10.2018 16:00:00 - 22.10.2018 16:00:00 (CEST)Vlieland, Pays-Bas (6242): visibility: 16.10.2018 16:00:00 - 22.10.2018 16:00:00 (CEST)
Date & Time tt [°C] td [°C] tt 5cm [°C] ff [km/h] ff [knt] fx [km/h] fx [knt] dd ppp [hPa] vv [km]
22.10.2018 16:00:00 12,6 3,3 12,9 29 16 40 21 NNW 1033,9 10
22.10.2018 15:00:00 12,3 5,3 12,5 24 13 32 18 NNW 1033,6 10
22.10.2018 14:00:00 13,0 3,7 13,9 28 15 40 21 N 1033,9 10
22.10.2018 13:00:00 13,1 4,9 12,8 29 16 40 21 N 1033,8 10
22.10.2018 12:00:00 13,6 5,5 13,5 28 15 40 21 N 1033,3 10
22.10.2018 11:00:00 13,5 7,2 13,5 29 16 50 27 N 1032,8 10
22.10.2018 10:00:00 13,1 8,0 12,4 29 16 40 21 N 1031,9 10
22.10.2018 09:00:00 13,1 7,6 12,4 29 16 43 23 NNW 1031,0 10
22.10.2018 08:00:00 12,8 6,7 12,0 35 19 43 23 NNW 1030,2 10
22.10.2018 07:00:00 12,6 7,6 11,7 34 18 43 23 NNW 1029,7 10
22.10.2018 06:00:00 12,8 9,4 12,0 35 19 47 25 NNW 1029,0 10
22.10.2018 05:00:00 13,1 11,1 12,5 28 15 47 25 N 1028,2 10
22.10.2018 04:00:00 13,5 9,9 13,0 28 15 40 21 N 1027,8 10
22.10.2018 03:00:00 13,7 10,0 13,0 31 17 40 21 N 1027,3 10
22.10.2018 02:00:00 13,2 12,1 12,9 35 19 50 27 N 1026,9 10
22.10.2018 01:00:00 14,1 12,6 13,5 39 21 47 25 N 1026,2 10
22.10.2018 00:00:00 14,3 14,1 14,3 18 10 29 16 NW 1026,0 2,6
21.10.2018 23:00:00 14,5 13,2 14,4 22 12 29 16 WNW 1025,7 10
21.10.2018 22:00:00 15,0 13,4 14,6 24 13 32 18 W 1025,3 10
21.10.2018 21:00:00 15,1 13,7 14,7 24 13 32 18 WSW 1025,3 9
21.10.2018 20:00:00 14,8 13,1 14,2 31 17 36 19 SW 1025,3 9
21.10.2018 19:00:00 14,3 13,0 13,5 28 15 36 19 SW 1025,3 5
21.10.2018 18:00:00 14,6 12,7 14,2 29 16 43 23 SSW 1024,9 9
21.10.2018 17:00:00 15,3 12,6 15,5 34 18 47 25 SSW 1024,9 10
21.10.2018 16:00:00 16,3 13,0 16,8 35 19 47 25 SW 1025,4 9
21.10.2018 15:00:00 16,6 13,1 17,3 35 19 43 23 SW 1025,9 10
21.10.2018 14:00:00 16,2 13,0 16,8 37 20 47 25 SW 1026,2 9
21.10.2018 13:00:00 16,3 13,4 16,9 37 20 43 23 SW 1026,7 10
21.10.2018 12:00:00 16,2 13,6 17,1 34 18 40 21 SSW 1027,0 10
21.10.2018 11:00:00 13,9 12,5 14,3 18 10 36 19 SSW 1027,3 6
21.10.2018 10:00:00 13,2 12,1 13,0 18 10 25 14 S 1027,2 5
21.10.2018 09:00:00 12,3 11,6 11,8 21 11 29 16 S 1027,2 4,0
21.10.2018 08:00:00 12,6 12,0 12,2 21 11 25 14 S 1027,1 3,4
21.10.2018 07:00:00 13,1 12,4 12,4 16 9 22 12 S 1027,4 3,9
21.10.2018 06:00:00 13,1 12,1 12,2 22 12 25 14 SW 1027,7 10
21.10.2018 05:00:00 13,5 12,1 12,6 21 11 29 16 SW 1027,9 10
21.10.2018 04:00:00 13,5 11,9 12,6 24 13 29 16 WSW 1027,9 10
21.10.2018 03:00:00 13,8 11,9 13,0 22 12 25 14 WSW 1028,4 10
21.10.2018 02:00:00 14,0 11,6 13,4 22 12 29 16 SW 1028,8 10
21.10.2018 01:00:00 14,1 11,6 13,6 24 13 29 16 SW 1029,2 10
21.10.2018 00:00:00 13,9 11,4 13,4 22 12 25 14 SW 1029,6 10
20.10.2018 23:00:00 13,9 11,0 12,4 22 12 25 14 WSW 1029,7 10
20.10.2018 22:00:00 12,3 10,5 11,1 15 8 22 12 SW 1029,9 10
20.10.2018 21:00:00 12,9 10,4 11,7 16 9 22 12 WSW 1030,0 10
20.10.2018 20:00:00 13,4 10,6 12,1 16 9 25 14 WSW 1030,0 10
20.10.2018 19:00:00 14,0 10,4 13,2 21 11 25 14 W 1029,9 10
20.10.2018 18:00:00 14,3 10,5 13,9 18 10 25 14 W 1029,8 10
20.10.2018 17:00:00 14,8 10,8 14,9 24 13 29 16 W 1030,2 10
20.10.2018 16:00:00 15,4 10,7 15,3 22 12 29 16 W 1030,2 10
20.10.2018 15:00:00 16,2 11,0 17,9 24 13 29 16 W 1030,5 10
20.10.2018 14:00:00 16,2 11,2 17,7 24 13 29 16 WSW 1030,2 10
20.10.2018 13:00:00 15,5 10,6 16,5 28 15 32 18 WSW 1030,3 10
20.10.2018 12:00:00 15,3 11,0 14,4 26 14 32 18 W 1030,6 10
20.10.2018 11:00:00 14,5 10,5 14,0 24 13 29 16 W 1030,3 10
20.10.2018 10:00:00 12,8 10,0 11,1 16 9 18 10 SW 1029,9 10
20.10.2018 09:00:00 12,8 9,4 12,1 16 9 18 10 WSW 1029,1 10
20.10.2018 08:00:00 13,3 9,1 12,5 15 8 18 10 W 1029,1 10
20.10.2018 07:00:00 13,1 9,0 12,2 15 8 22 12 W 1028,9 10
20.10.2018 06:00:00 12,4 8,4 11,0 16 9 25 14 NW 1028,5 10
20.10.2018 05:00:00 12,4 8,4 10,8 22 12 29 16 WNW 1028,3 10
20.10.2018 04:00:00 10,6 7,6 9,3 21 11 25 14 SSW 1027,7 10
20.10.2018 03:00:00 9,4 7,0 7,8 15 8 18 10 SSW 1027,7 10
20.10.2018 02:00:00 8,9 6,5 7,1 13 7 14 8 SSW 1027,7 10
20.10.2018 01:00:00 10,3 6,9 8,2 9 5 14 8 SW 1027,9 10
20.10.2018 00:00:00 7,9 5,7 3,6 13 7 14 8 S 1027,4 10
19.10.2018 23:00:00 5,8 3,7 2,3 5 3 7 4 SSW 1027,5 10
19.10.2018 22:00:00 5,2 4,0 1,2 4 2 4 2 - 1027,8 10
19.10.2018 21:00:00 5,6 3,7 1,7 2 1 7 4 E 1027,3 10
19.10.2018 20:00:00 6,6 4,1 3,5 9 5 14 8 ESE 1026,8 10
19.10.2018 19:00:00 9,6 5,3 7,4 5 3 11 6 ENE 1026,2 10
19.10.2018 18:00:00 11,3 5,5 10,4 9 5 11 6 E 1025,9 10
19.10.2018 17:00:00 12,3 5,0 12,1 11 6 18 10 E 1025,9 10
19.10.2018 16:00:00 13,0 5,3 13,6 13 7 18 10 E 1026,1 10
19.10.2018 15:00:00 13,3 5,2 14,0 9 5 18 10 E 1026,3 10
19.10.2018 14:00:00 12,8 5,5 14,2 13 7 18 10 ESE 1026,6 10
19.10.2018 13:00:00 13,1 4,8 15,0 15 8 22 12 SE 1027,0 10
19.10.2018 12:00:00 12,5 5,1 13,9 18 10 22 12 SE 1026,8 10
19.10.2018 11:00:00 11,5 5,8 11,0 21 11 25 14 SE 1026,7 10
19.10.2018 10:00:00 11,3 6,2 10,7 18 10 25 14 SE 1026,8 10
19.10.2018 09:00:00 11,0 5,6 10,4 16 9 22 12 SE 1026,7 10
19.10.2018 08:00:00 11,1 5,9 10,4 13 7 18 10 SE 1026,6 10
19.10.2018 07:00:00 10,8 6,0 10,2 8 4 14 8 ENE 1026,5 10
19.10.2018 06:00:00 10,9 6,4 9,9 9 5 18 10 E 1026,3 10
19.10.2018 05:00:00 11,2 6,4 10,4 18 10 25 14 ESE 1026,6 10
19.10.2018 04:00:00 11,3 7,3 10,3 13 7 18 10 ESE 1026,6 10
19.10.2018 03:00:00 11,4 7,8 10,8 13 7 18 10 ESE 1026,9 10
19.10.2018 02:00:00 11,3 8,3 10,6 16 9 18 10 ESE 1026,9 10
19.10.2018 01:00:00 11,1 8,6 10,6 15 8 22 12 E 1027,0 10
19.10.2018 00:00:00 11,5 7,5 10,9 13 7 18 10 ENE 1027,3 10
18.10.2018 23:00:00 11,7 7,6 11,2 16 9 22 12 ENE 1027,3 10
18.10.2018 22:00:00 12,4 8,0 12,0 16 9 25 14 ENE 1027,2 10
18.10.2018 21:00:00 12,5 8,6 12,0 18 10 29 16 NE 1026,8 10
18.10.2018 20:00:00 10,8 8,6 9,3 11 6 14 8 ENE 1026,9 10
18.10.2018 19:00:00 11,3 8,0 10,1 16 9 22 12 ENE 1026,5 10
18.10.2018 18:00:00 13,4 8,1 12,6 15 8 29 16 NE 1026,0 10
18.10.2018 17:00:00 14,7 8,1 14,7 26 14 32 18 NE 1026,0 10
18.10.2018 16:00:00 14,3 9,3 14,7 22 12 32 18 NNE 1026,1 10
18.10.2018 15:00:00 15,4 9,9 14,8 24 13 29 16 NNE 1026,2 10
18.10.2018 14:00:00 15,3 9,7 15,2 18 10 29 16 NNE 1026,3 10
18.10.2018 13:00:00 14,4 8,2 14,5 21 11 32 18 NNE 1026,6 10
18.10.2018 12:00:00 13,9 9,0 14,1 24 13 29 16 NNE 1026,4 10
18.10.2018 11:00:00 14,0 8,2 13,7 28 15 36 19 NNE 1026,2 10
18.10.2018 10:00:00 13,9 9,1 13,6 24 13 32 18 NNE 1025,6 10
18.10.2018 09:00:00 13,1 8,8 12,5 26 14 32 18 NNE 1025,1 10
18.10.2018 08:00:00 12,9 9,6 11,9 24 13 32 18 N 1024,5 10
18.10.2018 07:00:00 13,5 9,9 12,4 24 13 32 18 N 1024,1 10
18.10.2018 06:00:00 13,6 10,6 12,7 24 13 32 18 N 1023,7 10
18.10.2018 05:00:00 13,7 10,8 12,9 26 14 36 19 N 1023,6 10
18.10.2018 04:00:00 13,9 11,0 13,6 26 14 32 18 N 1023,3 10
18.10.2018 03:00:00 13,9 11,1 13,4 26 14 36 19 N 1023,2 10
18.10.2018 02:00:00 14,2 10,9 13,8 26 14 32 18 N 1023,0 10
18.10.2018 01:00:00 14,4 11,7 14,0 26 14 32 18 N 1022,6 10
18.10.2018 00:00:00 14,5 12,9 13,9 15 8 29 16 NW 1022,2 10
17.10.2018 23:00:00 14,0 13,1 13,8 9 5 22 12 NNW 1021,9 10
17.10.2018 22:00:00 14,2 12,9 14,0 9 5 18 10 WNW 1021,6 10
17.10.2018 21:00:00 14,3 12,7 14,2 15 8 18 10 NW 1021,2 10
17.10.2018 20:00:00 14,6 11,5 13,9 9 5 18 10 WNW 1020,9 10
17.10.2018 19:00:00 14,3 11,3 13,1 13 7 18 10 WNW 1020,2 10
17.10.2018 18:00:00 14,5 11,3 14,0 13 7 18 10 WNW 1020,0 10
17.10.2018 17:00:00 15,3 11,6 15,7 15 8 22 12 W 1019,7 10
17.10.2018 16:00:00 15,9 11,6 16,5 18 10 25 14 W 1019,5 10
17.10.2018 15:00:00 17,1 12,1 18,5 18 10 29 16 W 1019,3 10
17.10.2018 14:00:00 17,2 12,4 18,6 24 13 29 16 WSW 1019,2 10
17.10.2018 13:00:00 17,3 13,9 18,6 22 12 32 18 WSW 1018,9 10
17.10.2018 12:00:00 17,3 13,6 18,4 16 9 25 14 WSW 1018,8 10
17.10.2018 11:00:00 16,5 13,8 16,2 16 9 22 12 WSW 1018,6 10
17.10.2018 10:00:00 15,4 14,2 14,9 13 7 18 10 SW 1018,2 10
17.10.2018 09:00:00 15,0 13,9 14,1 13 7 22 12 WSW 1017,9 10
17.10.2018 08:00:00 14,6 14,3 13,8 13 7 18 10 SW 1017,6 5
17.10.2018 07:00:00 14,7 14,2 13,9 16 9 22 12 SW 1017,1 8
17.10.2018 06:00:00 15,0 14,3 13,7 21 11 22 12 WSW 1016,9 6
17.10.2018 05:00:00 14,0 13,2 12,4 13 7 14 8 SSW 1016,4 4,5
17.10.2018 04:00:00 13,6 12,9 11,0 13 7 14 8 S 1016,6 3,2
17.10.2018 03:00:00 13,7 12,7 11,1 13 7 14 8 SSW 1016,9 6
17.10.2018 02:00:00 14,1 12,7 11,7 5 3 14 8 SW 1016,8 10
17.10.2018 01:00:00 16,1 13,1 14,9 16 9 29 16 WSW 1016,9 10
17.10.2018 00:00:00 16,3 14,0 15,1 13 7 22 12 S 1016,7 7
16.10.2018 23:00:00 15,6 13,5 13,9 15 8 22 12 SSE 1017,0 10
16.10.2018 22:00:00 14,7 12,7 11,7 15 8 18 10 S 1017,1 10
16.10.2018 21:00:00 14,7 12,1 12,5 15 8 22 12 S 1017,5 10
16.10.2018 20:00:00 15,3 12,2 13,2 15 8 22 12 S 1017,7 10
16.10.2018 19:00:00 16,2 12,4 14,5 15 8 22 12 S 1017,6 10
16.10.2018 18:00:00 18,2 12,6 17,5 16 9 29 16 S 1017,3 10
16.10.2018 17:00:00 19,6 12,3 19,9 28 15 32 18 SW 1017,0 10
16.10.2018 16:00:00 20,0 12,1 20,7 29 16 32 18 SW 1016,9 10

tt = Température de l'air
td = dewpoint
tt 5cm = Température de l'air 5cm
ff = Vitesse du vent
fx = gusts
dd = Direction du vent
ppp = reduced air pressure
vv = visibility

stations d'obs. à proximité